Latest Coastal Weather Observations for Mackay

IDQ60701

Issued at 10:45 am EST Thursday 17 April 2014 (issued every 10 minutes, with the page automatically refreshed every 10 minutes)

About coastal observations | Map of coastal stations | Coastal observations for QLD | Marine services | Other Formats
Station Details ID: 033119 Name: MACKAY M.O Lat: -21.12 Lon: 149.22 Height: 30.26 m
Data from the previous 72 hours. | See also: Recent months at Mackay
Date/Time
EST
Temp

°C
Wind Pressure Rain
since 9am
mm
Weather Cloud Vis
km
Sea
Height
m
Swell
Dir
 
Speed
knots
Gust
knots
hPa Trend Height
m
Period
s
Dir
17/10:30am 27.1 E 7 10 1017.5 - 0.0 - Mostly clear 10 - - - -
17/10:00am 26.9 E 8 11 1017.5 - 0.0 - Mostly clear 10 - - - -
17/09:30am 25.8 SE 4 8 1017.5 - 0.0 - Mostly clear 10 - - - -
17/09:00am 25.2 S 4 6 1017.1 R 0.0 Fine Mostly clear 20 - - - -
17/08:30am 24.9 SSW 5 7 1017.0 - 0.0 - Mostly clear 10 - - - -
17/08:00am 23.7 SSW 5 7 1016.4 - 0.0 - Mostly clear 10 - - - -
17/07:30am 22.1 SW 5 7 1016.4 - 0.0 - Mostly clear 10 - - - -
17/07:00am 21.2 SW 6 8 1015.9 - 0.0 - Mostly clear 10 - - - -
17/06:30am 21.0 SW 5 7 1015.8 - 0.0 - Mostly clear 10 - - - -
17/06:00am 21.1 SW 5 6 1015.3 R 0.0 Fine Mostly clear 20 - - - -
17/05:30am 21.3 SW 5 6 1015.0 - 0.0 - - - - - - -
17/05:00am 21.6 SW 5 6 1014.6 - 0.0 - Partly cloudy - - - - -
17/04:30am 21.8 SSW 5 6 1014.7 - 0.0 - Partly cloudy - - - - -
17/04:00am 22.0 SW 4 5 1014.5 - 0.0 - Partly cloudy - - - - -
17/03:30am 22.0 SW 5 6 1014.5 - 0.0 - Partly cloudy - - - - -
17/03:00am 22.1 SW 4 5 1014.3 - 0.0 - Mostly clear - - - - -
17/02:30am 22.3 SW 4 5 1014.7 - 0.0 - - - - - - -
17/02:00am 22.6 SW 4 5 1014.6 - 0.0 - Partly cloudy - - - - -
17/01:30am 22.6 WSW 5 5 1014.9 - 0.0 - Partly cloudy - - - - -
17/01:00am 22.6 WSW 4 5 1014.9 - 0.0 - - - - - - -
17/12:30am 22.7 WSW 4 5 1015.4 - 0.0 - - - - - - -
17/12:00am 23.4 WNW 3 4 1015.1 - 0.0 - Cloudy - - - - -
 
Date/Time
EST
Temp

°C
Wind Pressure Rain
since 9am
mm
Weather Cloud Vis
km
Sea
Height
m
Swell
Dir
 
Speed
knots
Gust
knots
hPa Trend Height
m
Period
s
Dir
16/11:30pm 24.0 NE 3 4 1015.3 - 0.0 - Partly cloudy - - - - -
16/11:00pm 23.9 NE 4 5 1015.3 - 0.0 - - - - - - -
16/10:30pm 23.9 NE 4 5 1015.5 - 0.0 - Partly cloudy - - - - -
16/10:00pm 23.6 NE 4 6 1015.4 - 0.0 - Partly cloudy - - - - -
16/09:30pm 23.4 NNE 4 8 1015.6 - 0.0 - Partly cloudy - - - - -
16/09:00pm 23.6 NE 4 6 1015.3 R 0.0 - Partly cloudy - - - - -
16/08:30pm 23.9 NE 4 7 1015.3 - 0.0 - Partly cloudy - - - - -
16/08:00pm 24.0 NE 5 7 1014.9 - 0.0 - Partly cloudy - - - - -
16/07:30pm 23.9 NE 4 7 1014.7 - 0.0 - Partly cloudy - - - - -
16/07:00pm 24.1 ENE 5 7 1014.1 - 0.0 - Partly cloudy - - - - -
16/06:30pm 24.3 ENE 6 9 1013.8 - 0.0 - Partly cloudy - - - - -
16/06:00pm 24.6 E 8 11 1013.2 F 0.0 - Mostly clear - - - - -
16/05:30pm 25.1 E 7 11 1013.4 - 0.0 - Partly cloudy - - - - -
16/05:00pm 25.6 E 7 11 1013.1 - 0.0 - Mostly clear 10 - - - -
16/04:30pm 26.0 E 7 10 1013.0 - 0.0 - Mostly clear 10 - - - -
16/04:00pm 26.2 E 7 10 1012.9 - 0.0 - Mostly clear 10 - - - -
16/03:30pm 26.8 ENE 6 10 1013.2 - 0.0 - Mostly clear 10 - - - -
16/03:00pm 27.0 E 8 12 1013.0 R 0.0 Haze Mostly clear 20 - - - -
16/02:30pm 27.2 E 7 10 1013.3 - 0.0 - Mostly clear 10 - - - -
16/02:00pm 27.0 E 7 11 1013.2 - 0.0 - Mostly clear 10 - - - -
16/01:30pm 27.0 E 8 11 1013.7 - 0.0 - Mostly clear 10 - - - -
16/01:00pm 27.4 E 7 11 1013.7 - 0.0 - Mostly clear 10 - - - -
16/12:30pm 26.8 E 7 10 1014.3 - 0.0 - Mostly clear 10 - - - -
16/12:00pm 26.9 E 7 9 1014.4 F 0.0 Haze Mostly clear 20 - - - -
16/11:30am 26.8 E 6 10 1015.1 - 0.0 - Mostly clear 10 - - - -
16/11:00am 27.0 ESE 6 9 1015.2 - 0.0 - Mostly clear 10 - - - -
16/10:30am 26.4 E 5 10 1015.6 - 0.0 - Partly cloudy 10 - - - -
16/10:00am 26.1 SSE 5 7 1015.7 - 0.0 - Partly cloudy 10 - - - -
16/09:30am 25.8 S 5 8 1016.1 - 0.0 - Partly cloudy 10 - - - -
16/09:00am 25.2 S 5 7 1015.7 F 0.0 Haze Partly cloudy 20 - - - -
16/08:30am 24.3 S 3 5 1015.4 - 0.0 - Mostly clear 10 - - - -
16/08:00am 23.2 SSW 5 7 1015.2 - 0.0 - Mostly clear 10 - - - -
16/07:30am 21.3 SW 5 7 1015.4 - 0.0 - Mostly clear 10 - - - -
16/07:00am 21.0 SW 6 8 1015.1 - 0.0 - Partly cloudy 10 - - - -
16/06:30am 20.7 SW 6 8 1014.9 - 0.0 - Mostly clear 10 - - - -
16/06:00am 20.8 SW 6 7 1014.6 R 0.0 Fine Mostly clear 20 - - - -
16/05:30am 20.8 SW 6 7 1014.5 - 0.0 - Partly cloudy - - - - -
16/05:00am 20.8 SW 6 8 1014.1 - 0.0 - - - - - - -
16/04:30am 20.7 SW 6 7 1014.2 - 0.0 - - - - - - -
16/04:00am 20.9 SW 6 7 1013.8 - 0.0 - Partly cloudy - - - - -
16/03:30am 21.0 SW 5 6 1013.8 - 0.0 - Partly cloudy - - - - -
16/03:00am 21.2 SW 5 6 1013.6 - 0.0 - Mostly clear - - - - -
16/02:30am 21.5 SSW 4 6 1013.8 - 0.0 - Partly cloudy - - - - -
16/02:00am 21.9 SW 4 5 1013.7 - 0.0 - Partly cloudy - - - - -
16/01:30am 22.8 SSW 4 6 1014.1 - 0.0 - Partly cloudy - - - - -
16/01:00am 24.2 ESE 4 7 1014.2 - 0.0 - Partly cloudy - - - - -
16/12:30am 24.4 E 5 7 1014.6 - 0.0 - Partly cloudy - - - - -
16/12:00am 24.2 ESE 5 8 1014.5 - 0.0 - Partly cloudy - - - - -
 
Date/Time
EST
Temp

°C
Wind Pressure Rain
since 9am
mm
Weather Cloud Vis
km
Sea
Height
m
Swell
Dir
 
Speed
knots
Gust
knots
hPa Trend Height
m
Period
s
Dir
15/11:30pm 24.4 E 6 8 1014.7 - 0.0 - Partly cloudy - - - - -
15/11:00pm 24.5 E 5 7 1014.6 - 0.0 - Partly cloudy - - - - -
15/10:30pm 24.5 E 6 10 1015.0 - 0.0 - Partly cloudy - - - - -
15/10:00pm 24.5 E 5 8 1014.8 - 0.0 - Partly cloudy - - - - -
15/09:30pm 24.5 ESE 5 9 1014.9 - 0.0 - Partly cloudy - - - - -
15/09:00pm 24.2 ESE 5 9 1014.6 R 0.0 - Mostly clear - - - - -
15/08:30pm 24.3 ESE 6 11 1014.4 - 0.0 - - - - - - -
15/08:00pm 24.3 ESE 6 10 1013.9 - 0.0 - - - - - - -
15/07:30pm 24.4 ESE 6 9 1013.8 - 0.0 - - - - - - -
15/07:00pm 24.2 SE 6 9 1013.3 - 0.0 - - - - - - -
15/06:30pm 24.2 SE 6 9 1013.2 - 0.0 - - - - - - -
15/06:00pm 24.2 SE 7 11 1012.9 R 0.0 - Mostly clear - - - - -
15/05:30pm 24.4 SE 7 11 1012.9 - 0.0 - - - - - - -
15/05:00pm 24.9 ESE 7 11 1012.2 - 0.0 - Mostly clear 10 - - - -
15/04:30pm 25.2 ESE 8 14 1012.4 - 0.0 - Mostly clear 10 - - - -
15/04:00pm 25.6 SE 8 12 1012.1 - 0.0 - Mostly clear 10 - - - -
15/03:30pm 25.5 SE 8 14 1012.2 - 0.0 - Mostly clear 10 - - - -
15/03:00pm 26.3 SE 9 15 1012.0 R 0.0 Fine Mostly clear 25 - - - -
15/02:30pm 26.5 SE 8 12 1012.2 - 0.0 - Mostly clear 10 - - - -
15/02:00pm 26.1 SE 8 14 1012.0 - 0.0 - Mostly clear 10 - - - -
15/01:30pm 26.6 SE 8 12 1012.5 - 0.0 - Mostly clear 10 - - - -
15/01:00pm 26.6 SE 8 12 1012.7 - 0.0 - Mostly clear 10 - - - -
15/12:30pm 26.8 SSE 9 15 1013.3 - 0.0 - Mostly clear 10 - - - -
15/12:00pm 25.9 SSE 10 16 1013.2 F 0.0 Fine Mostly cloudy 25 - - - -
15/11:30am 27.1 SSE 9 14 1013.9 - 0.0 - Mostly clear 10 - - - -
15/11:00am 26.0 SSE 10 14 1014.1 - 0.0 - Mostly clear 10 - - - -
15/10:30am 26.1 SE 6 9 1014.5 - 0.0 - Mostly clear 10 - - - -
15/10:00am 25.2 SSE 7 12 1014.5 - 0.0 - Mostly clear 10 - - - -
15/09:30am 25.4 SSE 10 15 1014.8 - 0.0 - Mostly clear 10 - - - -
15/09:00am 25.0 SSE 11 14 1014.4 F 0.0 Fine Mostly clear 25 - - - -
15/08:30am 24.2 S 10 14 1014.5 - 0.0 - Mostly clear 10 - - - -
15/08:00am 23.0 S 7 9 1014.1 - 0.0 - Mostly clear 10 - - - -
15/07:30am 21.6 SSW 6 8 1014.3 - 0.0 - Mostly clear 10 - - - -
15/07:00am 20.2 SSW 7 9 1013.9 - 0.0 - Mostly clear 10 - - - -
15/06:30am 19.7 SSW 7 9 1013.7 - 0.0 - Mostly clear 10 - - - -
15/06:00am 20.0 SW 7 9 1013.2 R 0.0 Fine Partly cloudy 30 - - - -
15/05:30am 20.0 SSW 7 9 1013.0 - 0.0 - Partly cloudy - - - - -
15/05:00am 20.0 SW 7 8 1012.5 - 0.0 - - - - - - -
15/04:30am 19.8 SW 6 7 1012.4 - 0.0 - Partly cloudy - - - - -
15/04:00am 20.2 SW 6 7 1012.1 - 0.0 - Partly cloudy - - - - -
15/03:30am 20.2 SSW 7 8 1011.8 - 0.0 - - - - - - -
15/03:00am 20.1 SSW 7 8 1011.5 - 0.0 - - - - - - -
15/02:30am 20.1 SSW 7 8 1011.8 - 0.0 - - - - - - -
15/02:00am 20.4 SW 7 8 1011.9 - 0.0 - - - - - - -
15/01:30am 20.3 SW 6 7 1012.2 - 0.0 - - - - - - -
15/01:00am 20.5 WSW 6 7 1012.3 - 0.0 - - - - - - -
15/12:30am 20.6 WSW 6 7 1012.6 - 0.0 - - - - - - -
15/12:00am 20.7 SW 6 7 1012.3 - 0.0 - - - - - - -
 
Date/Time
EST
Temp

°C
Wind Pressure Rain
since 9am
mm
Weather Cloud Vis
km
Sea
Height
m
Swell
Dir
 
Speed
knots
Gust
knots
hPa Trend Height
m
Period
s
Dir
14/11:30pm 20.8 SW 6 7 1012.6 - 0.0 - - - - - - -
14/11:00pm 21.1 SW 6 9 1012.6 - 0.0 - - - - - - -
14/10:30pm 21.3 SW 6 7 1012.6 - 0.0 - - - - - - -
14/10:00pm 21.7 WSW 6 8 1012.3 - 0.0 - - - - - - -
14/09:30pm 23.0 SW 6 7 1012.5 - 0.0 - - - - - - -
14/09:00pm 23.2 SSE 4 5 1012.2 R 0.0 - - - - - - -
14/08:30pm 23.2 SSE 5 6 1012.1 - 0.0 - - - - - - -
14/08:00pm 23.2 S 6 6 1011.5 - 0.0 - - - - - - -
14/07:30pm 23.2 S 6 7 1011.2 - 0.0 - - - - - - -
14/07:00pm 23.6 S 6 6 1010.7 - 0.0 - - - - - - -
14/06:30pm 24.1 SSW 5 6 1010.3 - 0.0 - - - - - - -
14/06:00pm 24.0 S 6 7 1009.9 R 0.0 - - - - - - -
14/05:30pm 25.1 S 7 11 1009.6 - 0.0 - - - - - - -
14/05:00pm 25.9 S 8 12 1009.2 - 0.0 - Mostly clear 10 - - - -
14/04:30pm 26.4 S 9 14 1009.2 - 0.0 - Mostly clear 10 - - - -
14/04:00pm 26.0 SE 5 8 1009.0 - 0.0 - Mostly clear 10 - - - -
14/03:30pm 26.2 SE 5 7 1008.8 - 0.0 - Mostly clear 10 - - - -
14/03:00pm 26.2 SE 5 8 1008.5 R 0.0 Fine Mostly cloudy 25 - - - -
14/02:30pm 26.5 SSE 5 7 1008.5 - 0.0 - Mostly clear 10 - - - -
14/02:00pm 27.1 SSE 5 8 1008.3 - 0.0 - Mostly clear 10 - - - -
14/01:30pm 27.3 S 7 11 1008.5 - 0.0 - Mostly clear 10 - - - -
14/01:00pm 26.7 SE 6 9 1008.6 - 0.0 - Mostly clear 10 - - - -
14/12:30pm 26.6 SE 6 9 1009.2 - 0.0 - Mostly clear 10 - - - -
14/12:00pm 26.3 S 6 9 1009.5 R 0.0 Fine Mostly cloudy 25 - - - -
14/11:30am 26.2 SSW 6 8 1009.9 - 0.0 - Cloudy - - - - -
14/11:00am 26.4 S 8 11 1010.0 - 0.0 - Mostly clear 10 - - - -

Other Formats:

Comma delimited format used in spreadsheet applications
http://www.bom.gov.au/fwo/IDQ60701/IDQ60701.94367.axf

JavaScript Object Notation format (JSON) in row-major order
http://www.bom.gov.au/fwo/IDQ60701/IDQ60701.94367.json